Tracking 29892 objects as of 21-Nov-2024
HD Live streaming from Space Station
objects crossing your sky now

STARLINK-6234

Track STARLINK-6234 now!
10-day predictions
STARLINK-6234 is classified as:


NORAD ID: 57331
Int'l Code: 2023-099D
Perigee: 564.6 km
Apogee: 567.8 km
Inclination: 43.0 °
Period: 95.8 minutes
Semi major axis: 6937 km
RCS: Unknown
Launch date: July 16, 2023
Source: United States (US)
Launch site: AIR FORCE EASTERN TEST RANGE (AFETR)
Your satellite tracking list
Your tracking list is empty




NASA's NSSDC Master Catalog

Two Line Element Set (TLE):
1 57331U 23099D   24325.43858750 -.00000219  00000-0 -10970-5 0  9994
2 57331  43.0029 306.2072 0002323 255.5050 104.5535 15.02533052 74775
Source of the keplerian elements: AFSPC